Flag for U.S.A. Weather past 2 weeks in Mesquite, Texas, U.S.A.

Now
70 °F

Mostly cloudy.


Feels Like: 70 °F
Forecast: 60 / 76 °F
Wind: 9 mph from Southeast

Location: Mesquite Metro Airport

Current Time: Mar 30, 2015 at 12:43:57 PM

Latest Report: Mar 30, 2015 at 11:47 AM


Visibility: 10 mi

Pressure: 30.18 "Hg

Humidity: 78%

Dew point: 63 °F

Location of MesquiteLocation

Historic Weather in Mesquite — Graph

°F

Mesquite temperature yesterday

Maximum temperature yesterday: 82 °F (at 4:50 PM)
Minimum temperature yesterday: 54 °F (at 7:50 AM)
Average temperature yesterday: 66 °F

Past Weeks' High & Low Weather Summary

 TemperatureHumidityPressure
High82 °F (Mar 29, 4:50 PM)100% (Mar 16, 6:50 AM)30.32 "Hg (Mar 16, 6:50 AM)
Low41 °F (Mar 27, 7:50 AM)28% (Mar 28, 3:50 PM)29.77 "Hg (Mar 25, 11:55 PM)
Average61 °F78%30.06 "Hg
* Reported Mar 15 10:50 AM — Mar 30 10:47 AM, Mesquite, Weather by CustomWeather, © 2015

Note: Actual official high and low records may vary slightly from our data, if they occured in-between our weather recording intervals... More about our weather records

Advertising

Mesquite weather history for previous 24 hours

 ConditionsComfort  
Time TempWeatherWind HumidityBarometerVisibility
10:47 AM
Mon, Mar 30
66 °FMore clouds than sun.7 mph88%30.19 "Hg5 mi
9:47 AM64 °FOvercast.5 mph88%30.18 "Hg7 mi
8:50 AM64 °FOvercast.5 mph88%30.17 "Hg10 mi
7:55 AM64 °FOvercast.3 mph88%30.16 "Hg10 mi
6:47 AM64 °FOvercast.5 mph88%30.13 "Hg10 mi
6:15 AM63 °FOvercast.6 mph88%30.12 "Hg10 mi
5:55 AM63 °FOvercast.5 mph87%30.12 "Hg10 mi
5:15 AM62 °FOvercast.3 mph86%30.11 "Hg10 mi
4:55 AM62 °FOvercast.No wind87%30.11 "Hg10 mi
4:35 AM62 °FOvercast.No wind87%30.11 "Hg10 mi
4:15 AM60 °FPassing clouds.6 mph89%30.12 "Hg10 mi
3:55 AM62 °FClear.No wind84%30.11 "Hg10 mi
3:35 AM62 °FClear.3 mph85%30.10 "Hg10 mi
3:15 AM63 °FClear.5 mph81%30.10 "Hg10 mi
2:55 AM64 °FClear.5 mph80%30.10 "Hg10 mi
2:35 AM64 °FClear.10 mph78%30.09 "Hg10 mi
2:15 AM64 °FClear.9 mph79%30.09 "Hg10 mi
1:55 AM64 °FClear.8 mph77%30.10 "Hg10 mi
1:35 AM64 °FClear.7 mph74%30.09 "Hg10 mi
1:15 AM64 °FClear.7 mph72%30.09 "Hg10 mi
12:55 AM65 °FClear.6 mph67%30.10 "Hg10 mi
12:15 AM65 °FClear.7 mph66%30.09 "Hg10 mi
11:55 PM
Sun, Mar 29
66 °FPassing clouds.3 mph64%30.09 "Hg10 mi
11:35 PM68 °FPassing clouds.8 mph61%30.09 "Hg10 mi
11:15 PM68 °FPassing clouds.6 mph58%30.09 "Hg10 mi
10:55 PM67 °FPassing clouds.No wind63%30.09 "Hg10 mi
10:35 PM70 °FClear.No wind55%30.08 "Hg10 mi
10:15 PM70 °FClear.5 mph56%30.07 "Hg10 mi
9:55 PM71 °FClear.6 mph55%30.06 "Hg10 mi
9:35 PM71 °FClear.6 mph55%30.05 "Hg10 mi
9:15 PM71 °FClear.6 mph54%30.03 "Hg10 mi
8:55 PM72 °FClear.7 mph52%30.01 "Hg10 mi
8:15 PM75 °FSunny.13 mph44%30.00 "Hg10 mi
7:50 PM75 °FSunny.10 mph44%30.00 "Hg10 mi
6:50 PM79 °FSunny.15 mph42%29.99 "Hg10 mi
5:50 PM82 °FSunny.17 mph35%29.97 "Hg10 mi
4:50 PM82 °FSunny.22 mph37%29.95 "Hg10 mi
3:50 PM81 °FSunny.21 mph42%29.97 "Hg10 mi
2:50 PM81 °FSunny.20 mph45%30.00 "Hg10 mi
1:50 PM77 °FSunny.17 mph51%30.02 "Hg10 mi
12:47 PM75 °FSunny.18 mph50%30.03 "Hg10 mi
Weather by CustomWeather, © 2015

See weather overviewHow to use our weather pages